Theta_e
299 295 292 296 297 297 294 292 291 295 298 294 294 295 297 299 299 300 301 302 304 304 306 306 306 307 307 307 307 307 306 306 308 309 310 311 310 311 311 312 311 309 307 304
294 291 297 297 295 293 293 291 291 295 297 293 294 293 296 298 299 300 300 302 303 303 304 305 305 306 306 305 305 305 305 305 305 307 309 309 308 309 309 310 309 308 306 304
294 297 296 294 293 291 293 291 292 292 294 294 292 293 294 299 298 300 301 301 301 300 302 303 303 303 303 303 303 302 303 304 304 305 306 306 304 305 304 305 305 304 304 303
294 296 293 291 291 293 290 296 292 290 289 286 292 286 294 298 299 300 300 299 300 301 301 301 301 300 300 300 301 301 302 302 301 302 303 303 301 300 302 302 303 303 302 302
294 291 290 291 292 293 291 292 291 290 289 287 289 286 294 295 293 297 297 298 299 299 298 297 297 297 297 298 298 299 300 300 300 300 301 301 301 302 303 302 302 301 300 300
293 294 293 294 293 293 293 292 291 289 288 284 291 288 290 293 294 296 296 296 296 295 295 295 295 295 294 295 296 297 297 296 298 299 299 300 299 299 300 298 298 299 298 298
295 296 293 293 291 291 291 289 284 285 284 285 287 287 290 296 296 294 293 293 293 293 293 292 292 292 292 292 293 294 294 293 295 296 297 298 298 298 298 298 297 297 297 296
288 287 290 292 292 292 289 290 284 280 282 286 291 286 292 297 293 294 294 293 293 292 292 291 291 291 292 291 292 292 292 292 292 293 294 295 296 297 298 298 297 297 297 297
288 288 292 290 292 292 288 286 292 285 286 281 287 292 294 293 291 292 291 292 290 290 290 290 290 290 290 291 291 291 291 291 291 292 292 293 294 294 295 296 297 297 297 297
291 286 294 292 291 291 291 293 285 286 278 277 284 287 288 289 288 290 289 288 288 289 289 289 289 289 290 290 291 291 291 290 290 290 291 291 292 292 293 293 293 294 295 295
292 290 290 292 289 289 287 285 286 286 284 280 279 284 293 290 288 288 287 287 287 287 287 288 289 289 289 289 289 289 289 288 288 289 289 290 291 291 292 291 292 292 293 293
293 291 285 288 295 294 291 289 289 283 281 284 283 284 295 289 287 286 284 284 286 286 287 287 287 287 287 287 288 288 288 288 287 288 288 288 289 290 289 290 291 291 291 291
293 288 283 285 289 290 288 290 289 290 288 283 281 284 290 288 284 284 283 283 284 284 284 285 286 286 286 286 286 286 287 286 286 287 287 286 287 288 287 287 288 290 290 290
294 287 284 280 283 287 285 286 286 284 280 282 282 283 287 289 288 284 283 282 283 283 282 283 284 284 285 285 284 284 285 285 285 285 285 285 285 286 286 286 286 287 288 288
289 283 285 285 287 286 284 283 283 281 282 277 281 281 284 286 281 280 280 281 283 283 281 281 282 283 283 283 283 284 284 284 284 283 283 283 285 286 286 285 285 285 286 286
284 280 281 278 282 282 279 280 280 280 280 279 280 280 286 281 282 281 280 280 280 281 281 282 282 282 282 282 282 282 283 283 283 282 282 282 283 284 284 283 282 283 284 285
280 279 278 274 280 277 273 277 280 281 282 281 276 279 279 278 280 280 280 280 280 281 281 281 282 283 283 283 283 282 282 283 282 281 281 281 282 282 282 280 280 281 282 284
278 278 277 273 271 266 277 280 280 278 280 279 278 278 280 280 280 282 283 282 281 282 282 282 283 283 283 284 283 283 282 281 281 281 280 280 280 280 280 278 278 279 282 283
281 277 273 269 270 273 275 277 276 275 276 280 279 279 279 280 281 280 283 283 283 283 283 284 283 283 282 282 282 281 280 280 279 279 279 279 279 278 277 275 276 278 281 281
278 279 274 264 266 265 274 277 278 277 271 276 277 278 278 279 273 277 283 284 283 283 284 282 282 281 281 280 279 278 278 278 277 278 278 278 278 276 274 275 275 276 278 277
271 271 270 271 268 272 278 278 279 269 272 279 279 279 279 277 280 283 284 283 284 283 282 281 281 279 279 279 278 276 276 276 277 277 277 276 276 274 274 273 274 273 273 274
271 269 268 266 265 265 277 276 273 279 280 281 281 281 280 281 281 282 282 282 283 280 279 279 278 277 278 277 276 274 274 276 276 275 274 273 272 272 272 270 270 270 271 271
269 274 272 270 272 278 279 280 282 283 281 281 281 282 281 280 280 281 281 279 278 277 277 277 275 274 275 275 274 272 273 273 271 269 268 268 269 269 268 268 268 268 269 270
276 278 273 274 277 278 280 282 283 283 282 283 283 282 280 279 279 276 276 276 275 274 273 273 272 270 270 271 270 269 269 268 266 265 265 265 265 265 266 266 267 267 267 268
277 277 274 274 277 279 280 281 282 282 283 281 277 277 276 275 274 274 273 271 271 271 270 269 268 267 266 267 266 265 264 263 262 262 262 262 263 262 263 264 265 265 267 268
278 276 273 272 278 278 279 282 283 280 280 276 274 273 273 271 271 270 269 269 268 267 267 265 265 264 263 262 262 262 262 261 260 260 260 261 261 261 262 262 262 266 268 270
Wind_Speed
4 9 14 20 21 21 14 17 21 20 18 15 21 23 19 21 26 27 23 20 16 12 12 11 11 11 10 7 8 9 11 12 11 11 12 12 13 12 13 13 17 17 16 19
4 13 17 9 6 11 17 22 22 21 15 8 17 23 25 26 22 22 22 17 12 7 9 10 11 13 13 10 8 7 8 9 11 9 9 10 9 11 11 11 13 15 17 17
18 10 2 13 13 14 18 16 21 23 15 14 13 13 4 5 9 14 11 9 5 4 11 14 16 15 15 16 14 10 7 7 8 11 8 8 6 8 8 10 10 12 16 16
10 5 7 4 10 15 19 14 16 14 8 10 8 11 11 12 18 12 13 12 14 15 17 16 17 17 17 16 15 14 10 5 4 8 9 12 10 10 9 9 10 11 15 17
5 1 2 7 12 6 9 5 4 4 8 8 5 8 6 5 4 7 11 13 16 16 18 19 19 19 18 19 19 17 15 10 5 5 9 7 11 9 8 6 10 13 12 16
12 1 5 5 3 6 1 4 7 2 4 10 10 9 2 3 2 9 12 15 18 18 18 17 16 17 20 20 19 17 16 15 12 6 6 8 9 10 8 8 6 7 9 11
16 15 3 4 8 3 4 5 6 6 6 8 6 3 7 11 6 13 15 13 14 12 14 19 19 19 20 20 18 16 18 18 15 12 9 9 9 10 12 11 8 9 8 9
11 22 7 7 6 3 6 7 4 7 10 16 11 9 6 5 17 13 14 14 15 19 16 16 17 15 15 15 17 19 19 18 19 17 15 10 9 7 9 10 9 9 9 11
5 9 2 5 1 2 5 7 8 4 5 7 10 17 8 9 9 12 14 14 15 13 13 13 14 15 17 17 15 17 17 16 17 16 15 15 12 11 11 13 12 10 11 10
1 7 6 2 2 7 8 3 7 5 6 10 14 14 11 11 5 7 11 11 12 10 12 12 13 13 13 14 14 14 14 14 14 14 13 12 14 15 13 12 13 13 13 12
9 6 9 1 9 17 5 7 6 3 5 5 4 9 3 3 5 7 7 9 10 12 12 13 13 13 14 13 14 15 16 16 16 15 13 12 11 13 12 10 11 12 13 13
8 6 12 23 21 8 7 10 13 9 10 10 14 18 12 6 8 5 5 6 7 8 10 11 12 13 13 14 14 15 15 15 16 15 15 14 13 13 13 14 15 13 12 12
5 3 8 7 7 3 8 11 13 16 12 19 19 14 6 9 9 6 4 2 2 4 7 8 8 9 11 13 13 13 13 14 14 14 13 13 14 14 14 15 15 15 14 13
2 4 9 10 14 11 5 3 6 5 5 8 8 10 14 17 20 5 3 2 2 3 6 8 8 9 10 9 10 12 12 12 13 14 14 14 13 13 14 14 14 14 14 14
2 10 15 17 18 15 14 13 16 17 16 10 18 18 21 18 4 2 1 3 6 6 4 6 7 9 10 11 10 11 11 12 13 13 14 14 13 13 13 13 12 13 13 11
1 7 6 9 12 13 10 14 20 21 23 24 25 27 11 1 1 4 5 5 6 5 6 8 8 9 9 9 10 12 12 12 11 11 13 13 12 12 12 13 14 13 12 12
4 4 6 16 15 12 13 21 21 23 24 24 22 10 4 1 6 8 7 9 10 8 10 10 9 10 10 11 10 11 13 13 13 12 10 11 11 12 12 13 14 13 13 12
13 13 8 11 5 20 12 7 11 15 9 3 3 5 4 5 9 10 9 12 13 11 11 11 10 10 10 11 12 12 11 11 11 12 13 13 12 13 13 15 15 15 14 14
17 14 7 8 13 16 18 9 6 6 9 8 7 5 4 8 8 16 11 14 15 14 12 11 10 11 12 12 12 12 12 12 12 13 12 12 12 14 15 16 16 15 15 15
8 13 10 4 7 10 6 3 3 3 9 8 4 4 7 6 10 14 17 14 14 14 9 10 12 12 13 13 11 12 13 13 14 14 14 13 13 12 14 17 18 16 15 17
3 4 14 13 12 9 5 4 5 5 5 7 6 11 11 11 13 17 16 16 15 11 11 10 13 13 13 13 12 15 15 15 14 13 14 16 15 15 15 16 16 17 18 18
6 5 5 1 4 12 5 7 7 1 4 12 12 14 13 15 16 16 17 16 13 11 13 14 12 13 15 14 13 17 18 16 14 14 16 16 17 14 14 18 17 18 17 18
9 10 6 9 6 1 6 6 11 16 18 18 14 14 14 14 15 15 13 8 9 11 11 12 12 15 15 15 14 17 19 19 19 18 18 18 18 17 17 18 18 15 16 15
17 16 12 12 19 20 20 21 21 19 16 14 12 11 9 12 8 7 7 9 10 11 12 12 13 16 18 15 16 16 19 19 19 21 20 18 18 18 17 14 14 14 14 14
13 5 10 15 21 19 21 20 22 20 15 6 1 1 2 3 5 7 8 10 10 11 12 12 13 16 19 18 18 16 18 18 19 20 19 18 15 17 16 15 14 14 16 17
14 19 13 16 21 17 22 18 16 12 10 4 3 3 1 3 6 8 9 9 11 12 13 14 16 16 17 17 19 18 16 17 18 18 15 14 14 14 14 15 15 24 31 35
Wind_Direction
180 210 209 225 226 247 284 271 273 278 279 294 282 291 297 288 278 275 285 278 281 288 330 330 318 313 308 282 263 245 231 221 212 211 212 218 222 220 218 214 209 205 198 194
176 236 237 262 266 250 258 268 275 279 274 286 289 297 289 273 276 275 279 286 297 334 3 21 21 25 15 359 340 303 259 231 218 220 220 221 223 232 236 227 223 212 205 199
245 268 263 219 239 259 247 264 274 284 308 274 292 278 265 278 266 279 283 284 320 54 66 41 32 24 20 16 10 357 315 266 234 224 220 225 256 237 224 228 227 220 213 204
257 304 235 210 241 246 278 262 267 282 298 291 352 295 297 263 274 322 40 62 93 67 45 37 36 34 26 16 15 10 4 344 266 232 226 221 230 236 230 225 224 222 221 215
284 221 183 223 240 219 262 1 304 297 275 298 250 260 315 251 269 61 66 90 71 39 44 36 30 29 27 24 22 13 17 22 354 257 239 242 252 261 253 250 223 211 214 223
270 222 246 253 184 217 232 295 274 196 263 257 257 216 328 354 116 62 69 67 40 42 45 38 33 35 32 27 24 24 28 26 9 347 290 257 259 267 263 249 238 221 216 215
306 284 220 230 246 152 222 305 308 269 217 272 109 278 271 278 356 59 85 59 55 48 44 34 31 29 27 27 27 30 27 28 26 19 347 322 297 275 266 265 241 239 223 220
287 301 198 162 230 213 172 175 202 271 284 295 315 254 255 244 90 78 55 48 40 37 36 31 28 28 29 28 28 25 27 29 23 16 8 356 327 304 294 277 261 249 235 231
236 249 352 227 180 213 103 207 234 243 272 273 257 261 239 101 84 62 54 42 35 28 28 25 20 21 18 23 22 26 24 23 23 21 12 11 356 331 307 296 279 267 254 253
254 270 238 210 195 214 208 202 219 234 244 242 260 263 265 182 74 53 50 32 21 21 25 20 17 19 21 21 18 21 20 20 18 15 19 12 3 356 341 316 293 276 268 252
174 220 283 181 226 260 201 211 211 110 226 258 274 274 70 59 110 61 35 19 14 16 21 17 13 14 13 15 15 12 10 10 8 11 10 9 9 6 358 338 316 300 289 275
207 243 256 265 271 256 271 253 214 227 228 230 249 247 331 111 111 76 52 24 16 11 6 7 10 4 6 8 6 5 4 4 2 358 357 358 0 2 359 354 348 331 305 288
47 281 271 248 241 335 256 261 254 264 275 252 258 255 109 137 135 81 83 63 13 8 5 1 6 3 359 357 356 356 355 356 354 352 356 353 354 355 355 349 343 338 327 307
22 210 238 287 300 302 265 312 318 283 280 331 295 313 308 307 309 34 123 280 282 339 2 341 350 348 351 356 350 344 344 352 349 348 348 350 347 346 344 341 337 333 330 313
240 260 272 277 284 285 274 274 275 266 275 264 285 278 276 292 344 37 49 278 249 264 306 326 333 333 338 338 340 332 332 342 343 340 338 339 336 334 334 336 334 329 323 313
116 272 291 271 275 263 268 271 269 273 270 264 262 267 299 51 311 276 292 305 280 293 310 317 321 316 313 314 316 320 320 323 330 323 323 324 326 325 329 329 327 323 317 313
263 267 265 270 283 312 269 248 265 273 272 269 269 306 88 299 299 312 313 316 305 305 328 323 299 289 285 295 296 294 302 315 318 310 306 309 311 313 319 321 316 315 311 311
248 246 255 272 322 261 281 317 269 265 282 156 126 170 206 274 296 293 291 289 288 275 296 308 306 300 291 283 283 286 290 292 293 297 307 312 312 311 314 313 311 311 309 307
233 252 252 247 246 290 299 243 228 225 284 197 172 183 291 284 285 279 270 269 274 261 285 298 305 304 301 296 298 292 289 290 285 280 280 288 301 303 308 305 304 305 302 303
217 230 228 156 243 260 306 143 115 142 271 177 186 221 289 291 279 294 311 303 284 262 276 300 310 308 303 308 305 288 284 285 283 286 286 286 286 287 294 300 301 300 296 292
173 196 223 232 248 268 247 152 158 233 309 163 208 257 272 268 263 282 291 286 278 277 296 309 308 305 303 311 311 297 295 288 289 287 285 286 286 285 285 286 288 295 294 290
240 225 200 179 250 267 146 124 220 278 271 298 288 286 284 284 278 280 280 287 293 290 310 318 313 306 308 314 309 301 297 305 303 297 289 286 287 285 286 283 283 282 282 281
252 222 245 216 242 244 192 254 261 282 285 284 284 286 287 278 278 285 295 308 303 313 314 316 311 308 306 311 312 303 305 313 307 301 293 290 288 285 282 280 279 279 274 270
256 253 242 260 253 257 267 267 271 275 274 277 279 284 286 276 295 289 302 308 313 316 316 318 314 306 303 311 309 303 307 308 301 296 295 296 292 290 285 279 275 272 270 270
242 236 243 254 260 269 261 262 266 269 274 263 161 247 264 294 293 307 310 309 308 312 315 315 308 302 301 308 306 305 301 303 298 297 298 297 292 287 285 275 273 269 266 267
242 247 246 251 263 261 271 271 275 257 250 190 193 219 192 322 306 317 306 310 314 314 315 307 303 299 299 300 297 298 299 297 295 293 292 290 291 287 283 282 279 270 275 276